Location: *
(42.3442°N, 9.2072°E)
Time: 03:44:36
(UTC+00:00)

Cosmos 2082 Rocket - Pass Details

Date: 09 April 2020
Orbit: 831 x 855 km, 71.0° (Epoch: 02 June)

Event Time Altitude Azimuth Distance (km) Brightness Sun altitude
Exits shadow 22:15:20 32° 344° (NNW) 1,415 3.7 -37.2°
Drops below altitude 10° 22:18:48 10° 12° (NNE) 2,468 5.2 -37.4°
Sets 22:21:25 0° 19° (NNE) 3,411 6.0 -37.6°
